Location: Eastchurch
(51.4000°N, 0.8667°E)
Time: 23:18:58
(UTC+00:00)

SL-16 R/B - Pass Details

Date: 19 January 2026
Orbit: 842 x 846 km, 71.0° (Epoch: 9 February)

Event Time Altitude Azimuth Distance (km) Brightness Sun altitude
Rises 17:51:27 0° 259° (WSW) 3,399 7.4 -13.3°
Reaches altitude 10° 17:54:29 10° 274° (W) 2,466 5.8 -13.7°
Maximum altitude 17:58:48 22° 324° (NW) 1,775 4.1 -14.4°
Drops below altitude 10° 18:03:08 10° 14° (NNE) 2,472 4.4 -15.0°
Enters shadow 18:04:30 - 23° (NNE) 2,875 4.6 -15.2°
